Location: *
(44.6480°S, 51.1140°W)
Time: 05:56:12
(UTC+00:00)

Daily predictions for brighter satellites

Satellite Brightness Start Highest point End
(mag) Time Altitude Azimuth Time Altitude Azimuth Time Altitude Azimuth
ATLAS 3B R/B 4.5 06:17:18 23° SSE 06:17:18 23° SSE 06:20:05 10° SSE
USA 267 4.5 06:42:43 10° ESE 06:48:24 32° S 06:48:36 32° S
SL-16 R/B 3.9 06:42:17 10° SSE 06:45:24 31° SSE 06:45:24 31° SSE
CENTAUR R/B 2.9 07:10:20 77° NE 07:10:27 77° NE 07:17:33 10° SE
ATLAS CENTAUR R/B 3.2 07:19:03 33° ESE 07:19:03 33° ESE 07:22:04 10° SE
Cosmos 1943 Rocket 2.7 07:35:01 45° NNE 07:36:25 57° ENE 07:42:01 10° SSE
IDEFIX/ARIANE 42P 3.5 07:35:04 10° NE 07:40:09 48° ESE 07:45:17 10° S
Cosmos 2369 Rocket 2.2 07:41:18 69° S 07:41:18 69° S 07:46:19 10° SSE
Cosmos 2242 Rocket 4.3 07:39:41 10° S 07:44:18 56° ESE 07:48:51 10° NNE
Lacrosse 5 rocket 3.7 07:47:32 18° S 07:47:32 18° S 07:50:33 10° SE
COSMOS 2455 3.4 07:50:16 41° SSW 07:50:16 41° SSW 07:55:09 10° SSE
Radarsat Rocket 3.9 07:43:53 10° N 07:49:50 71° WNW 07:56:29 10° SSW
Cosmos 158 Rocket 4.3 07:47:09 23° S 07:50:32 67° ESE 07:55:49 10° NNE
Gbstr 26 Del rocket 3.7 07:52:36 66° NW 07:52:44 66° NW 07:59:29 10° NE
GEOS 3 Rocket 3.6 07:48:35 10° SSE 07:53:22 66° SSW 07:53:22 66° SSW
Ariane Rocket 4.1 07:52:28 10° NE 07:57:18 44° ESE 08:02:13 10° S
USA 215 3.7 07:50:58 10° SE 07:57:27 57° NE 08:01:28 24° NNW
ERS-2 3.4 07:56:16 10° NE 07:59:48 42° ESE 08:02:57 13° S
PAYLOAD A 3.9 07:55:39 10° NNE 08:00:43 83° ESE 08:05:40 10° SSW
CSL-04 Rocket 4.5 07:56:19 10° NE 08:01:30 50° ESE 08:06:42 10° S
ATLAS 3B R/B 4.3 08:04:32 17° SSW 08:06:11 18° SSW 08:10:56 10° SSE
Meteor 2-10 Rocket 3.4 08:03:01 10° SSW 08:08:17 85° W 08:13:42 10° N
Cosmos 1125 Rocket 3.6 08:07:56 21° NNW 08:11:35 81° ENE 08:17:00 10° SSE
MSX 4.1 08:12:07 10° NNE 08:17:50 70° ESE 08:23:38 10° S
CZ-4 R/B 3.1 08:16:33 10° NE 08:20:29 36° ESE 08:24:26 10° S
Cosmos 2263 4.3 08:19:37 43° WNW 08:21:07 56° WSW 08:26:49 10° SSE
Cosmos 1470 Rocket 3.5 08:17:02 10° N 08:21:27 87° W 08:26:00 10° S
CZ-2C R/B 2.1 08:19:01 10° NNE 08:23:37 88° WNW 08:28:20 10° SSW
Cosmos 1892 3.2 08:23:10 10° N 08:27:04 64° E 08:31:02 10° SSE
In-Cosmos 22 Rocket 4.0 08:24:36 10° NNW 08:29:59 78° WSW 08:35:34 10° S
SMAP 3.8 08:26:02 10° NNE 08:30:36 55° ESE 08:35:15 10° S
USA 267 3.7 08:24:13 10° ENE 08:30:37 57° SSE 08:35:58 16° SW
SL-16 R/B 4.0 08:27:14 10° SSW 08:30:30 19° SW 08:30:30 19° SW
Cosmos 1346 Rocket 2.6 08:30:47 20° SSW 08:33:22 65° W 08:37:15 10° N
Cosmos 1484 Rocket 3.9 08:31:53 10° NE 08:35:33 44° ESE 08:39:14 10° S
ATLAS CENTAUR R/B 4.1 08:30:36 10° NNW 08:35:41 62° ENE 08:50:59 10° SE
Cosmos 1633 Rocket 4.2 08:37:24 26° SW 08:37:24 26° SW 08:40:03 10° S
ASTEX 1 3.3 08:33:25 10° N 08:38:19 66° W 08:43:20 10° S
AQUARIUS 4.5 08:37:12 10° NNE 08:41:43 69° ESE 08:46:17 10° S
Cosmos 1464 Rocket 4.1 08:36:56 10° SSW 08:42:55 52° W 08:48:53 10° NNW
Cosmos 1833 4.4 08:39:35 17° SW 08:43:45 47° WNW 08:49:14 10° N
Cosmos 1825 4.4 08:44:27 10° NNE 08:47:48 29° E 08:51:12 10° SSE
ISS -3.7 08:49:00 42° W 08:49:53 62° NW 08:53:12 10° NE
Cosmos 2034 Rocket 4.0 08:45:34 10° SSW 08:51:56 61° W 08:58:11 10° N
Cosmos 1933 4.1 08:51:31 29° WSW 08:52:04 30° W 08:55:41 10° NNW
Cosmos 1867 4.5 08:51:08 25° W 08:52:06 27° WNW 08:56:33 10° NNW
SJ-12 4.0 08:48:35 10° N 08:52:37 53° W 08:56:43 10° SSW
Cosmos 1269 Rocket 4.3 08:47:51 10° SSW 08:52:57 44° WNW 08:57:59 10° N
Cosmos 2251 Rocket 4.0 08:50:59 10° SSW 08:56:24 64° ESE 09:01:44 10° NNE
ATLAS CENTAUR R/B 2.7 08:55:20 24° WSW 08:56:45 29° SW 09:00:57 10° SSE
Cosmos 2227 Rocket 3.8 08:52:01 10° S 08:57:14 34° SE 09:02:22 10° ENE
Cosmos 494 Rocket 4.1 08:53:33 10° SSW 08:58:53 82° ESE 09:04:11 10° NNE
Cosmos 1315 Rocket 4.5 09:00:52 17° SW 09:00:52 17° SW 09:02:41 10° SSW
CENTAUR R/B 3.6 08:57:33 20° W 09:01:44 33° SW 09:07:51 10° SSE
YAOGAN 1 2.9 08:57:57 10° NNE 09:02:18 72° ESE 09:06:43 10° S
Cosmos 2221 Rocket 3.9 08:59:09 10° S 09:03:42 71° E 09:08:09 10° NNE
Cosmos 1340 3.1 09:02:20 10° S 09:06:12 65° ESE 09:10:00 10° NNE
Cosmos 1606 3.3 09:03:00 10° S 09:06:57 62° E 09:10:47 10° NNE
SL-8 R/B 4.4 09:03:21 10° NW 09:08:06 53° NNE 09:12:51 10° ESE
CZ-2C R/B 3.6 09:05:31 10° S 09:10:12 75° WSW 09:14:43 10° NNW
CZ-4C R/B 3.6 09:07:23 10° SSW 09:12:56 35° SE 09:17:49 10° ENE
Tsikada Rocket 4.1 09:07:32 10° NNW 09:13:55 62° WSW 09:20:22 10° S
Cosmos 1933 Rocket 4.5 09:12:23 10° NW 09:16:10 27° WSW 09:19:59 10° SSW
Landsat 4 4.3 09:13:59 10° S 09:17:30 35° WSW 09:20:57 10° NW
Cosmos 1408 2.9 09:13:58 10° N 09:17:36 72° E 09:21:19 10° SSE
IDEFIX/ARIANE 42P 3.6 09:15:43 10° NNW 09:19:59 24° W 09:24:18 10° SW
Cosmos 1943 Rocket 3.2 09:16:36 13° WNW 09:20:32 26° SW 09:25:19 10° S
ATLAS 5 CENTAUR R/B 3.5 09:19:25 10° SSW 09:23:26 23° SSE 09:25:40 10° E
Cosmos 2369 Rocket 3.8 09:23:07 13° WSW 09:25:36 16° SW 09:29:04 10° S
Genesis I 3.3 09:21:56 10° SSW 09:25:50 80° SE 09:29:42 10° NE
Cosmos 909 Rocket 4.4 09:19:52 10° WNW 09:25:53 47° SW 09:32:36 10° SSE
Meteor 2-3 Rocket 4.1 09:22:01 10° NNW 09:27:35 46° WSW 09:33:15 10° S
Lacrosse 5 rocket 3.4 09:24:06 10° SW 09:27:55 23° SSE 09:31:38 10° ESE
COSMO-SKYMED 1 2.9 09:27:26 10° SSE 09:31:53 73° ENE 09:36:15 10° N
Cosmos 1656 Rocket 4.1 09:27:03 10° NW 09:32:18 41° WSW 09:37:33 10° SSE
ERS-2 3.9 09:31:32 10° NW 09:33:43 15° W 09:35:54 10° WSW
Cosmos 2219 3.4 09:30:05 10° SW 09:35:33 49° WNW 09:40:57 10° N
Ariane Rocket 4.0 09:32:13 10° NNW 09:36:26 25° W 09:40:42 10° SW
USA 215 3.5 09:34:02 10° SE 09:40:26 54° SSW 09:46:47 10° WNW
MONITOR-E 4.4 09:41:29 10° N 09:44:35 50° W 09:47:44 10° SSW
Meteor 1-27 Rocket 4.0 09:39:31 10° S 09:45:33 86° E 09:51:33 10° N
SPOT 3 Rocket 3.6 09:42:14 10° N 09:47:24 64° WNW 09:52:41 10° SSW
Cosmos 2297 Rocket 2.7 09:42:02 10° SSW 09:47:44 65° ESE 09:53:22 10° NE
Cosmos 1782 3.3 09:44:36 10° SSW 09:48:28 39° W 09:52:17 10° NNW
MOS 1 4.5 09:43:53 10° N 09:49:28 56° W 09:55:09 10° SSW
Cosmos 1733 Rocket 3.7 09:46:41 10° N 09:51:04 63° E 09:55:29 10° SSE
Okean 1-7 3.6 09:47:08 10° SSW 09:51:10 36° W 09:55:11 10° NNW
